Weather History for Buffalo, NY

Change the Weather History Date:

Thursday, February 13, 2014

  Actual Average Record
Temperature  
Mean Temperature 19 °F 26 °F  
Max Temperature 26 °F 33 °F 61 °F (1984)
Min Temperature 12 °F 19 °F -9 °F (1914)
Degree Days  
Heating Degree Days 46 39  
Month to date heating degree days 629 518  
Since 1 July heating degree days 4476 4177  
Cooling Degree Days 0 0  
Month to date cooling degree days 0 0  
Year to date cooling degree days 0 0  
Moisture  
Dew Point 12 °F    
Average Humidity 65    
Maximum Humidity 81    
Minimum Humidity 49    
Precipitation  
Precipitation T in 0.09 in 1.34 in (1938)
Month to date precipitation 1.38 1.14  
Year to date precipitation 4.54 4.32  
Snow  
Snow T in 0.60 in 8.80 in (1995)
Month to date snowfall 13.8 8.5  
Since 1 July snowfall 94.7 70.0  
Snow Depth 8.00 in    
Sea Level Pressure  
Sea Level Pressure 29.85 in    
Wind  
Wind Speed 7 mph (NE)    
Max Wind Speed 14 mph    
Max Gust Speed 17 mph    
Visibility 10 miles    
Events Snow    
T = Trace of Precipitation, MM = Missing Value Source: NWS Daily Summary

Daily Weather History Graph

Daily Weather History Graph

Search for Another Location

Airport:

Trip Planner

Search our weather history database for the weather conditions in past years. The results will help you decide how hot, cold, wet, or windy it might be!

Date:

Astronomy

Feb. 13, 2014 Rise Set
Actual Time 7:15 AM EST 5:43 PM EST
Civil Twilight 6:45 AM EST 6:13 PM EST
Nautical Twilight 6:12 AM EST 6:46 PM EST
Astronomical Twilight 5:39 AM EST 7:19 PM EST
Moon 4:50 PM EST (2/13) 6:07 AM EST (2/13)
Length of Visible Light 11h 27m
Length of Day
10h 28m
Waxing Gibbous, 98% of the Moon is Illuminated
Feb 13
Waxing Gibbous
Feb 14
Full
Feb 22
Last Quarter
Mar 1
New
Mar 8
First Quarter

Hourly Weather History & Observations

Time (EST) Temp. Windchill Dew Point Humidity Pressure Visibility Wind Dir Wind Speed Gust Speed Precip Events Conditions
12:54 AM 16.0 °F 8.8 °F 1.9 °F 54% 30.17 in 10.0 mi SSW 4.6 mph - N/A   Overcast
1:54 AM 14.0 °F 6.5 °F 1.0 °F 56% 30.13 in 10.0 mi SE 4.6 mph - N/A   Overcast
2:54 AM 14.0 °F 2.0 °F 1.0 °F 56% 30.12 in 10.0 mi SE 9.2 mph - N/A   Overcast
3:54 AM 14.0 °F 5.1 °F 1.9 °F 59% 30.13 in 10.0 mi SE 5.8 mph - N/A   Overcast
4:54 AM 14.0 °F 8.2 °F 3.0 °F 62% 30.11 in 10.0 mi East 3.5 mph - N/A   Overcast
5:54 AM 14.0 °F 8.2 °F 3.9 °F 64% 30.08 in 10.0 mi NE 3.5 mph - N/A   Overcast
6:54 AM 12.0 °F 5.9 °F 3.9 °F 70% 30.07 in 10.0 mi ENE 3.5 mph - N/A   Overcast
7:54 AM 14.0 °F 8.2 °F 6.1 °F 71% 30.05 in 10.0 mi ENE 3.5 mph - N/A   Mostly Cloudy
8:54 AM 15.1 °F 7.7 °F 6.8 °F 70% 30.02 in 10.0 mi NE 4.6 mph - N/A   Mostly Cloudy
9:45 AM 19.9 °F 11.1 °F 7.0 °F 57% 29.99 in 10.0 mi NE 6.9 mph - N/A   Mostly Cloudy
9:54 AM 19.9 °F 11.1 °F 7.0 °F 57% 29.99 in 10.0 mi NE 6.9 mph - N/A   Mostly Cloudy
10:54 AM 19.9 °F 9.3 °F 7.0 °F 57% 29.96 in 10.0 mi NNE 9.2 mph - N/A   Mostly Cloudy
11:54 AM 23.0 °F 13.9 °F 12.0 °F 63% 29.92 in 10.0 mi ENE 8.1 mph - N/A   Mostly Cloudy
12:54 PM 25.0 °F 14.8 °F 12.9 °F 60% 29.88 in 10.0 mi NE 10.4 mph - N/A   Overcast
1:54 PM 26.1 °F 15.0 °F 15.1 °F 63% 29.84 in 10.0 mi NE 12.7 mph - N/A   Mostly Cloudy
2:54 PM 26.1 °F 16.8 °F 14.0 °F 60% 29.80 in 10.0 mi NNE 9.2 mph - N/A   Mostly Cloudy
3:29 PM 26.6 °F 18.2 °F 14.0 °F 59% 29.73 in 10.0 mi NNE 8.1 mph - N/A   Mostly Cloudy
3:54 PM 26.1 °F 15.0 °F 15.1 °F 63% 29.75 in 10.0 mi NE 12.7 mph - N/A   Overcast
4:54 PM 25.0 °F 14.2 °F 16.0 °F 69% 29.69 in 10.0 mi NNE 11.5 mph - N/A   Overcast
5:54 PM 24.1 °F 15.2 °F 17.1 °F 75% 29.72 in 10.0 mi NE 8.1 mph - N/A   Overcast
6:23 PM 24.8 °F 16.1 °F 19.4 °F 80% 29.67 in 10.0 mi NE 8.1 mph - N/A   Overcast
6:46 PM 24.8 °F 15.3 °F 17.6 °F 74% 29.66 in 10.0 mi NE 9.2 mph - N/A   Overcast
6:54 PM 23.0 °F 13.1 °F 18.0 °F 81% 29.70 in 10.0 mi NE 9.2 mph - N/A   Overcast
7:54 PM 23.0 °F 13.9 °F 18.0 °F 81% 29.68 in 10.0 mi NE 8.1 mph - N/A   Overcast
8:54 PM 23.0 °F - 18.0 °F 81% 29.65 in 10.0 mi Calm Calm - 0.00 in Snow Light Snow
9:16 PM 23.0 °F 17.0 °F 17.6 °F 80% 29.60 in 9.0 mi NNE 4.6 mph - 0.00 in Snow Light Snow
9:54 PM 24.1 °F - 18.0 °F 77% 29.61 in 9.0 mi Calm Calm - 0.00 in Snow Light Snow
10:47 PM 24.8 °F 20.5 °F 19.4 °F 80% 29.56 in 10.0 mi North 3.5 mph - 0.00 in   Overcast
10:54 PM 24.1 °F 18.2 °F 19.0 °F 81% 29.59 in 10.0 mi NNW 4.6 mph - 0.00 in   Overcast
11:11 PM 24.8 °F 20.5 °F 19.4 °F 80% 29.54 in 10.0 mi North 3.5 mph - N/A   Overcast
11:32 PM 24.8 °F - 19.4 °F 80% 29.54 in 10.0 mi Calm Calm - 0.00 in Snow Light Snow
11:54 PM 23.0 °F 17.0 °F 19.0 °F 85% 29.56 in 9.0 mi NNE 4.6 mph - 0.00 in Snow Light Snow